800  
ASUS42 KILM 180113  
RWRILM  
RWRILM  
REGIONAL HOURLY WEATHER ROUNDUP  
NATIONAL WEATHER SERVICE WILMINGTON NC  
900 PM EDT THU AUG 17 2017  
 
NOTE: "FAIR" INDICATES FEW OR NO CLOUDS BELOW 12,000 FEET WITH NO  
SIGNIFICANT WEATHER AND/OR S TO VISIBILITY
.  
   
..............WFO WILMINGTON COUNTY WARNING AREA............
 
 
   
.....COASTAL NC AND SC COUNTIES...
 
 
 
CITY SKY/WX TMP DP RH WIND PRES REMARKS
 
WILMINGTON CLOUDY 79 77 94 CALM 29.98R  
N MYRTLE BEACH CLOUDY 78 78 100 CALM 29.97S  
MYRTLE BEACH PTCLDY 82 75 78 S6 29.98S  
   
.....INLAND NC AND SC COUNTIES....
 
 
 
CITY SKY/WX TMP DP RH WIND PRES REMARKS
 
LUMBERTON PTCLDY 76 75 97 S6 29.96S  
ELIZABETHTOWN NOT AVBL  
WHITEVILLE NOT AVBL  
FLORENCE CLOUDY 83 78 85 S9 29.97R HX 93  
DARLINGTON PTCLDY 81 78 91 S5 29.96S  
KINGSTREE FAIR 79 75 89 SE3 29.96F  
HARTSVILLE FAIR 81 75 83 SE3 29.96R  
BENNETTSVILLE FAIR 82 81 94 CALM 29.95S HX 95  
CONWAY FAIR 77 73 88 CALM 29.98S  
GEORGETOWN FAIR 77 77 100 CALM 29.98F  
MARION FAIR 79 73 83 S6 29.97S  
   
...................REST OF NORTH CAROLINA...................
 
 
   
........EASTERN NC......
 
 
 
CITY SKY/WX TMP DP RH WIND PRES REMARKS
 
CAPE HATTERAS PTCLDY 82 74 76 S8 30.01S  
JACKSONVILLE MOCLDY 80 79 96 SE3 29.98F  
MOREHEAD CITY PTCLDY 82 80 94 S5 30.00S HX 94  
KENANSVILLE CLOUDY 77 75 94 CALM 29.98S  
NEW BERN MOCLDY 81 79 94 SE6 29.99F HX 90  
ELIZABETH CITY CLOUDY 81 76 84 S8 29.99S  
   
........CENTRAL NC......
 
 
 
CITY SKY/WX TMP DP RH WIND PRES REMARKS
 
RALEIGH DURHAM CLOUDY 79 74 84 S7 29.98F  
ROCKY MOUNT CLOUDY 77 75 93 S3 29.98S  
ROANOKE RAPIDS NOT AVBL  
FAYETTEVILLE CLOUDY 77 76 96 SE5 29.97R  
HOFFMAN PTCLDY 80 76 88 SE5 29.97R  
   
........WESTERN NC......
 
 
 
CITY SKY/WX TMP DP RH WIND PRES REMARKS
 
CHARLOTTE PTCLDY 85 76 74 S7 29.98R HX 94  
GREENSBORO MOCLDY 84 75 74 S8 29.96F HX 92  
HICKORY NOT AVBL  
BOONE NOT AVBL  
ASHEVILLE NOT AVBL  
   
....................REST OF SOUTH CAROLINA..................
 
 
   
........EASTERN SC......
 
 
 
CITY SKY/WX TMP DP RH WIND PRES REMARKS
 
CHARLESTON MOCLDY 83 79 88 S7 29.98S HX 94  
BEAUFORT MCAS CLOUDY 86 80 82 S7 29.99R HX 101  
HILTON HEAD CLEAR 86 81 84 SW8 30.00R HX 102  
   
........CENTRAL SC......
 
 
 
CITY SKY/WX TMP DP RH WIND PRES REMARKS
 
COLUMBIA PTCLDY 87 76 69 CALM 29.96R HX 97  
ORANGEBURG CLOUDY 82 74 76 SE9 29.98R  
SUMTER SHAW CLEAR 86 76 71 S8 29.94S HX 96  
   
........WESTERN SC......
 
 
 
CITY SKY/WX TMP DP RH WIND PRES REMARKS
 
GREENVILLE NOT AVBL  
ROCK HILL CLEAR 82 76 81 SW5 29.98S  
ANDERSON CLEAR 85 74 69 SW6 30.00R HX 92  
CLEMSON NOT AVBL  
GREENWOOD CLOUDY 83 75 77 SW6 30.00S HX 90  
 
   
..................COASTAL AND OFFSHORE REPORTS...............
 
 
   
...............LOCAL PIERS AND NC RESERVE.............
 
 
 
STATION/POSITION TIME SKY/WX TEMP WIND PRES VSBY
 
AIR SEA DIR/SP/G  
(UTC) (F) (DEG/KT/KT) (MB) (MI)  
JOHNY MRCER PIER 0042 81 85 260/ 2/ 3 1014.2F  
NC RESRV MASNBRO NOT AVBL  
OCEAN CREST PIER NOT AVBL  
SPRINGMAID PIER 0042 1014.3S  
 
   
...............COASTAL AND OFFSHORE BUOYS.............
 
 
 
STATION/POSITION TIME SKY/WX TEMP WIND PRES VSBY
 
AIR SEA DIR/SP/G  
(UTC) (F) (DEG/KT/KT) (MB) (MI)  
DIMNDSHOAL 41025 0050 83 86 180/ 8/ 10 1016.3R  
WVE H/P(F/S)= 2/ 7 SWL H/P/D(F/S/D)= 2/ 50/ 7  
 
CAPE LOOKOUT 0100 83 170/ 6/ 7 1015.5F  
ONSLOW BAY 41036 NOT AVBL  
ONSLOW BAY 41064 0008 81 84 210/ 8/ 10 1015.3F  
ONSLOW BAY 41159 0043 84 N/A  
WVE H/P(F/S)= 2/ 6  
 
MASNBO INL 41110 0059 84 N/A  
WVE H/P(F/S)= 2/ 7  
 
WILM HARBR 41108 0100 85 N/A  
WVE H/P(F/S)= 2/ 5  
 
27SE WRITB 41037 0008 83 84 180/ 6/ 10 1015.0F  
FRYING PAN 41013 0050 84 85 210/ 6/ 8 1014.6F  
WVE H/P(F/S)= 2/ 7 SWL H/P/D(F/S/D)= 2/120/ 7  
 
SUNST NRSH 41024 0008 81 86 220/ 2/ 4 1014.9F  
CAPRS NRSH 41029 0008 84 86 220/ 10/ 14 1014.9F  
EDISTO 41004 0050 85 85 210/ 8/ 10 1014.8F  
WVE H/P(F/S)= 2/ 7 SWL H/P/D(F/S/D)= 2/130/ 7  
 
   
.........OFFSHORE BUOYS BEYOND 100 NM OFFSHORE........
 
   
....IN A TRIANGLE---HAT TO BERMUDA TO BAHAMAS TO HAT..
 
 
 
 
STATION/POSITION TIME SKY/WX TEMP WIND PRES VSBY
 
AIR SEA DIR/SP/G  
(UTC) (F) (DEG/KT/KT) (MB) (MI)  
150E HAT 41001 0050 82 40/ 6/ 8 1017.0R  
WVE H/P(F/S)= 3/ 6 SWL H/P/D(F/S/D)= 3/190/ 6  
 
W BERMUDA 41048 0050 82 83 240/ 14/ 17 1017.5R  
WVE H/P(F/S)= 5/ 6 SWL H/P/D(F/S/D)= 2/240/14  
 
ATLANTIC S 41049 0050 84 85 90/ 8/ 10 1021.3R  
WVE H/P(F/S)= 5/ 8 SWL H/P/D(F/S/D)= 5/120/ 8  
 
E BAHAMAS 41046 0050 82 84 60/ 14/ 17 1018.5R  
WVE H/P(F/S)= 6/ 8 SWL H/P/D(F/S/D)= 5/130/ 8  
 
NE BAHAMAS 41047 0050 84 85 130/ 8/ 12 1019.1R  
WVE H/P(F/S)= 3/ 7 SWL H/P/D(F/S/D)= 3/130/ 7  
 
120E CANVRL41010 0050 85 86 180/ 6/ 8 1017.6R  
WVE H/P(F/S)= 2/ 8 SWL H/P/D(F/S/D)= 2/ 90/ 8  
 
END  
 
 
CLICK HERE TO GO TO PREVIOUS BULLETINS.

The Nexlab NC Page
The Nexlab SC Page Main Text Page